Minot AFB, ND

5:14 AM CDT on September 26, 2017 (GMT -0500)
Minot Air Force Base

Weather History for KMIB - October, 2011

Change the Weather History Date:

Thursday, October 27, 2011

  Actual Average Record
Temperature  
Mean Temperature 36 °F -  
Max Temperature 48 °F 45 °F 68 °F (2005)
Min Temperature 26 °F 25 °F 14 °F (2012)
Degree Days  
Heating Degree Days 28    
Moisture  
Dew Point 34 °F    
Average Humidity 91    
Maximum Humidity 100    
Minimum Humidity 65    
Precipitation  
Precipitation 0.00 in - - ()
Sea Level Pressure  
Sea Level Pressure 29.99 in    
Wind  
Wind Speed 8 mph (WSW)    
Max Wind Speed 21 mph    
Max Gust Speed 25 mph    
Visibility 10 miles    
Events      
Averages and records for this station are not official NWS values.
T = Trace of Precipitation, MM = Missing Value Source: NWS Daily Summary

Daily Weather History Graph

Daily Weather History Graph

Search for Another Location

Airport or City:

Trip Planner

Search our weather history database for the weather conditions in past years. The results will help you decide how hot, cold, wet, or windy it might be!

Date:

Astronomy

Oct. 27, 2011 Rise Set
Actual Time 8:23 AM CDT 6:34 PM CDT
Civil Twilight 7:50 AM CDT 7:06 PM CDT
Nautical Twilight 7:14 AM CDT 7:43 PM CDT
Astronomical Twilight 6:37 AM CDT 8:19 PM CDT
Moon 9:39 AM CDT (10/27) 6:53 PM CDT (10/27)
Length of Visible Light 11h 16m
Length of Day
10h 11m
New Moon, 1% of the Moon is Illuminated
Oct 27
New Moon
Nov 2
First Quarter
Nov 10
Full
Nov 18
Last Quarter
Nov 25
New

Hourly Weather History & Observations

Time (CDT) Temp. Windchill Dew Point Humidity Pressure Visibility Wind Dir Wind Speed Gust Speed Precip Events Conditions
12:55 AM 29.8 °F 23.9 °F 29.8 °F 100% 30.08 in 10.0 mi SSW 5.8 mph - N/A   Clear
1:55 AM 29.8 °F 23.0 °F 29.8 °F 100% 30.07 in 10.0 mi SW 6.9 mph - N/A   Clear
2:55 AM 28.2 °F 24.4 °F 28.2 °F 100% 30.05 in 10.0 mi South 3.5 mph - N/A   Clear
3:55 AM 28.4 °F - 28.4 °F 100% 30.04 in 10.0 mi Calm Calm - N/A   Clear
4:55 AM 26.2 °F 19.6 °F 26.2 °F 100% 30.02 in 10.0 mi South 5.8 mph - N/A   Clear
5:55 AM 28.6 °F 24.8 °F 28.6 °F 100% 30.01 in 10.0 mi SSW 3.5 mph - N/A   Clear
6:55 AM 30.6 °F 23.8 °F 30.6 °F 100% 30.00 in 10.0 mi South 6.9 mph - N/A   Clear
7:55 AM 29.8 °F 23.0 °F 29.8 °F 100% 29.99 in 10.0 mi South 6.9 mph - N/A   Clear
8:55 AM 30.4 °F 23.6 °F 30.4 °F 100% 29.98 in 10.0 mi South 6.9 mph - N/A   Clear
9:55 AM 32.7 °F 26.4 °F 32.7 °F 100% 29.96 in 10.0 mi South 6.9 mph - N/A   Clear
10:55 AM 37.4 °F 29.8 °F 37.4 °F 100% 29.95 in 10.0 mi South 11.5 mph - N/A   Clear
11:55 AM 40.1 °F 32.7 °F 39.9 °F 99% 29.94 in 10.0 mi SSW 12.7 mph - N/A   Partly Cloudy
12:55 PM 42.4 °F 35.0 °F 34.3 °F 73% 29.93 in 10.0 mi West 15.0 mph - N/A   Scattered Clouds
1:55 PM 43.7 °F 36.6 °F 43.7 °F 100% 29.91 in 10.0 mi WNW 15.0 mph - 0.00 in   Partly Cloudy
2:43 PM 46.4 °F 41.5 °F 39.2 °F 76% 29.91 in 10.0 mi West 10.4 mph - N/A   Mostly Cloudy
2:55 PM 46.9 °F - 37.0 °F 68% 29.91 in 10.0 mi West 13.8 mph - N/A   Mostly Cloudy
3:55 PM 47.1 °F - 37.2 °F 68% 29.92 in 10.0 mi West 20.7 mph - N/A   Overcast
4:55 PM 47.7 °F - 36.5 °F 65% 29.94 in 10.0 mi WNW 18.4 mph 25.3 mph N/A   Mostly Cloudy
5:55 PM 45.1 °F 40.3 °F 37.8 °F 75% 29.95 in 10.0 mi WNW 9.2 mph - N/A   Partly Cloudy
6:55 PM 40.5 °F 34.1 °F 40.1 °F 99% 29.98 in 10.0 mi WNW 10.4 mph - N/A   Clear
7:55 PM 35.4 °F 27.8 °F 35.2 °F 99% 30.01 in 10.0 mi West 10.4 mph - N/A   Clear
8:55 PM 34.7 °F 26.9 °F 34.5 °F 99% 30.03 in 10.0 mi West 10.4 mph - N/A   Clear
9:55 PM 33.8 °F 26.4 °F 30.9 °F 89% 30.04 in 10.0 mi West 9.2 mph - N/A   Clear
10:55 PM 33.4 °F 25.4 °F 30.4 °F 89% 30.04 in 10.0 mi West 10.4 mph - N/A   Clear
11:55 PM 33.3 °F 25.1 °F 30.0 °F 88% 30.04 in 10.0 mi West 10.4 mph - N/A   Clear